Regional Weather Roundup
Issued by NWS Albany, NY

Home | Current Version | Previous Version | Text Only | Print | Product List | Glossary On
Versions: 1 2 3 4 5 6 7 8 9 10 11 12 13 14 15 16 17 18 19 20 21 22 23 24 25 26 27 28 29 30 31 32 33 34 35 36 37 38 39 40 41 42 43 44 45 46 47 48 49 50
000
ASUS41 KALY 281210
RWRALY

NEW YORK STATE HOURLY WEATHER ROUNDUP
NATIONAL WEATHER SERVICE ALBANY NY
800 AM EDT SAT MAR 28 2015

NOTE: "FAIR" INDICATES FEW OR NO CLOUDS BELOW 12,000 FEET WITH NO
SIGNIFICANT WEATHER AND/OR NO OBSTRUCTIONS TO VISIBILITY.

NYZ032-033-038>043-046>054-057>066-NYZ062>081-281300-
EAST


CITY           SKY/WX    TMP DP  RH WIND       PRES   REMARKS
ALBANY         FLURRIES  27  20  75 NW9       29.88R WCI  18
GLENS FALLS    CLOUDY    26  15  63 NE16G24   29.90R WCI  14
POUGHKEEPSIE   CLOUDY    32  20  61 N8        29.82R WCI  25
NEWBURGH       PTSUNNY   30  21  69 N12       29.82R WCI  21
MONTGOMERY     CLOUDY    30  18  60 NW10      29.81R WCI  21
WHITE PLAINS   LGT SNOW  32  22  66 NW15      29.76R WCI  22
ISLIP          LGT SNOW  33  28  81 NW15      29.74R VSB 1   WCI  23
NEW YORK CITY  CLOUDY    35  21  56 NW17      29.80R WCI  25
CENTRAL PARK   CLOUDY    34  18  52 NW10G17   29.82R WCI  26
$$

NYZ005>009-017-018-044>046-055-056-281300-
CENTRAL


CITY           SKY/WX    TMP DP  RH WIND       PRES   REMARKS
FULTON         CLOUDY    16   4  59 N12G20    30.03R WCI   3
SYRACUSE       CLOUDY    17   7  64 NW13      30.02R WCI   4
ROME           FLURRIES  18   9  68 NW12      30.00R WCI   5
ELMIRA         FLURRIES  20  13  74 NE12      29.97R WCI   8
BINGHAMTON     CLOUDY    16  10  77 N10       29.87R WCI   4
MONTICELLO     PTSUNNY   23  16  74 NW18      29.81R WCI   9
$$

NYZ026>034-041>043-281300-
NORTH


CITY           SKY/WX    TMP DP  RH WIND       PRES   REMARKS
WATERTOWN      MOSUNNY   14   2  58 N9        30.06R WCI   2
FORT DRUM      NOT AVBL
MASSENA        PTSUNNY   13   3  64 NW6       30.06R WCI   4
SARANAC LAKE   CLOUDY    15  10  80 VRB6      29.85R HAZE    WCI   6
PLATTSBURGH    CLOUDY    19   9  65 N17       29.99R WCI   4
$$

NYZ001>004-010>016-019>021-281300-
WEST


CITY           SKY/WX    TMP DP  RH WIND       PRES   REMARKS
NIAGARA FALLS  MOCLDY    16   7  67 N8        30.10R WCI   5
BUFFALO        FLURRIES  17   9  70 N12       30.09R WCI   4
DUNKIRK        LGT SNOW  12   9  87 N3        30.11R FOG
JAMESTOWN      CLOUDY    12   9  85 N13       29.98R WCI  -3
WELLSVILLE     LGT SNOW  15  11  83 VRB7      29.91R FOG     WCI   5
ROCHESTER      LGT SNOW  18  10  71 N10       30.07R WCI   6
PENN YAN       FLURRIES  17  11  77 N10       30.00R WCI   5
$$

             KEY
       WCI = WIND CHILL INDEX
       VSB = VISIBILITY
       HX  = HEAT INDEX
$$


USA.gov is the U.S. government's official web portal to all federal, state and local government web resources and services.